Regional Weather Roundup
Issued by NWS Mobile, AL

Current Version | Previous Version | Text Only | Print | Product List | Glossary On
Versions: 1 2 3 4 5 6 7 8 9 10 11 12 13 14 15 16 17 18 19 20 21 22 23 24 25 26 27 28 29 30 31 32 33 34 35 36 37 38 39 40 41 42 43 44 45 46 47 48 49 50
000
ASUS44 KMOB 010616
RWRMOB
REGIONAL WEATHER ROUNDUP
NATIONAL WEATHER SERVICE MOBILE AL
100 AM CDT WED JUL 01 2015

ALZ061>064-010700-
COASTAL ALABAMA


CITY           SKY/WX    TMP DP  RH WIND       PRES   REMARKS
MOBILE REG APT MOCLDY    75  70  84 W5        30.10F
6HR MIN TEMP:  74; 6HR MAX TEMP:  80;

BROOKLEY FIELD PTCLDY    76  72  87 W5        30.10
6HR MIN TEMP:  75; 6HR MAX TEMP:  80;

GULF SHORES    PTCLDY    77  74  91 W6        30.09R
6HR MIN TEMP:  75; 6HR MAX TEMP:  79;


$$

ALZ051>060-010700-
INTERIOR SOUTHWEST AND SOUTH CENTRAL ALABAMA


CITY           SKY/WX    TMP DP  RH WIND       PRES   REMARKS
ANDALUSIA/OPP  CLEAR     75  68  78 W3        30.08F
6HR MIN TEMP:  74; 6HR MAX TEMP:  82;

EVERGREEN      CLEAR     74  70  87 W6        30.08F
6HR MIN TEMP:  73; 6HR MAX TEMP:  80;

FLORALA        PTCLDY    71  68  90 CALM      30.10F
6HR MIN TEMP:  70; 6HR MAX TEMP:  75;

GREENVILLE     FAIR      73  68  84 SW7       30.07F
6HR MIN TEMP:  72; 6HR MAX TEMP:  78;


$$

FLZ001>006-010700-
WESTERN FLORIDA PANHANDLE


CITY           SKY/WX    TMP DP  RH WIND       PRES   REMARKS
CRESTVIEW      PTCLDY    70  69  97 CALM      30.10S
6HR MIN TEMP:  70; 6HR MAX TEMP:  79; 6HR PCP: TRACE;

DESTIN         PTCLDY    82  75  79 VRB3      30.08S
6HR MIN TEMP:  77; 6HR MAX TEMP:  82;

DUKE FIELD     FAIR      71  69  94 S3        30.07F
6HR MIN TEMP:  71; 6HR MAX TEMP:  81;

MARY ESTHER    MOCLDY    81  74  80 W2        30.07S
6HR MIN TEMP:  79; 6HR MAX TEMP:  81;

MILTON         PTCLDY    75  71  87 CALM      30.08F
6HR MIN TEMP:  75; 6HR MAX TEMP:  83;

PENSACOLA      PTCLDY    79  73  82 SW6       30.08S
6HR MIN TEMP:  77; 6HR MAX TEMP:  79;

NAS PENSACOLA  PTCLDY    78  74  87 SW3       30.08S
6HR MIN TEMP:  74; 6HR MAX TEMP:  80;

VALPARAISO     NOT AVBL

$$

...MARINE OBSERVATIONS...

STATION/POSITION TIME  SKY/WX   TEMP    WIND        PRES    VSBY
                                AIR SEA DIR/SP/G
                 (UTC)          (F)     (DEG/KT/KT) (MB)    (MI)
PASCAGOULA       0500            78     310/  6/  7 1018.9R
GRAND BAY        0445            78     330/  4     1020.0
PETIT BOIS ISL   0500            83     290/ 15/ 17 1019.4R
E DAUPHIN ISLAND 0500            81     250/  6/  8 1018.6S
MIDDLE BAY LIGHT 0500            81     270/ 11     1018.3S
USCG MOBILE BAY  0500            78 84  330/  5/  7 1018.2R
STATE DOCKS      0500            79 86              1019.0R
MEAHER PARK      0600            78     320/  2     1018.3F
FORT MORGAN      0500            81     280/ 14/ 16 1018.3F
12 S ORANGE BCH  0550            83 84  260/ 17/ 21 1018.2R
WVE H/P(F/S)=  1/ 3

PENSACOLA BAY    0500            81 84  240/  3/  6 1018.9F
64 S DAUPHIN ISL 0550            84 85  250/ 17/ 21 1020.1S
WVE H/P(F/S)=  2/ 3

67 S FORT MORGAN 0530            82     220/  8     1020.0F
115 SE PENSACOLA 0550            83 83  220/  8/ 10 1020.1R
WVE H/P(F/S)=  2/ 5

MID GULF/42001   0550            85 86  100/ 10/ 14 1020.4F
WVE H/P(F/S)=  2/ 6

EAST GULF/42003  0550            84 85  110/  8/ 10 1019.7F
WVE H/P(F/S)=  2/ 8


$$

...NEARBY LOCATIONS

CITY           SKY/WX    TMP DP  RH WIND       PRES   REMARKS
GULFPORT       CLOUDY    74  67  78 W3        30.10
6HR MIN TEMP:  74; 6HR MAX TEMP:  84;

BILOXI         CLOUDY    77  68  73 W6        30.10S
6HR MIN TEMP:  76; 6HR MAX TEMP:  85;

PASCAGOULA     CLOUDY    75  72  90 CALM      30.11
6HR MIN TEMP:  74; 6HR MAX TEMP:  81;

HATTIESBURG    MOCLDY    74  65  73 CALM      30.10
6HR MIN TEMP:  73; 6HR MAX TEMP:  81;

LAUREL         MOCLDY    70  64  83 S5        30.10F
6HR MIN TEMP:  70; 6HR MAX TEMP:  75; 6HR PCP:  0.01;

MERIDIAN       CLOUDY    69  67  93 S7        30.07F
6HR MIN TEMP:  69; 6HR MAX TEMP:  80; 6HR PCP: TRACE;

MERIDIAN NAS   CLOUDY    71  65  81 SW7       30.06F
6HR MIN TEMP:  71; 6HR MAX TEMP:  80; 6HR PCP:  0.04;

MONTGOMERY     CLOUDY    73  69  87 SW5       30.05
6HR MIN TEMP:  73; 6HR MAX TEMP:  79; 6HR PCP:  0.04;

MAXWELL AFB    CLOUDY    73  71  93 SW5       30.04F
6HR MIN TEMP:  73; 6HR MAX TEMP:  78; 6HR PCP:  0.04;

TROY           PTCLDY    70  68  93 CALM      30.08
6HR MIN TEMP:  70; 6HR MAX TEMP:  76;

FORT RUCKER    PTCLDY    68  66  93 CALM      30.07F
6HR MIN TEMP:  68; 6HR MAX TEMP:  71;

DALEVILLE      PTCLDY    70  69  96 S5        30.08S
6HR MIN TEMP:  69; 6HR MAX TEMP:  71;

DOTHAN         PTCLDY    71  68  90 SW7       30.11F
6HR MIN TEMP:  69; 6HR MAX TEMP:  71;


$$

...OTHER SURROUNDING LOCATIONS...

CITY           SKY/WX    TMP DP  RH WIND       PRES   REMARKS
BIRMINGHAM     MOCLDY    74  69  85 S3        30.06F
6HR MIN TEMP:  73; 6HR MAX TEMP:  80;

TUSCALOOSA     PTCLDY    72  70  93 S5        30.04F
6HR MIN TEMP:  71; 6HR MAX TEMP:  79; 6HR PCP:  0.02;

COLUMBUS GA    MOCLDY    72  66  81 W7        30.06
6HR MIN TEMP:  72; 6HR MAX TEMP:  80; 6HR PCP: TRACE;

PANAMA CITY    NOT AVBL
TALLAHASSEE    CLEAR     69  67  93 S3        30.09R
6HR MIN TEMP:  69; 6HR MAX TEMP:  72;

BATON ROUGE    CLOUDY    73  71  93 E3        30.09
6HR MIN TEMP:  71; 6HR MAX TEMP:  75; 6HR PCP: TRACE;

NEW ORLEANS    CLOUDY    75  68  78 SE6       30.08
6HR MIN TEMP:  74; 6HR MAX TEMP:  79; 6HR PCP: TRACE;

SLIDELL        CLOUDY    72  70  93 CALM      30.09
6HR MIN TEMP:  72; 6HR MAX TEMP:  77;

JACKSON        PTCLDY    73  69  87 SW6       30.05
6HR MIN TEMP:  72; 6HR MAX TEMP:  77;

MCCOMB         PTCLDY    69  69 100 CALM      30.08
6HR MIN TEMP:  69; 6HR MAX TEMP:  73;


$$

...SURROUNDING MARINE OBSERVATIONS...

STATION/POSITION TIME  SKY/WX   TEMP    WIND        PRES    VSBY
                                AIR SEA DIR/SP/G
                 (UTC)          (F)     (DEG/KT/KT) (MB)    (MI)
WAVELAND         0500            75 83  240/  4/  5 1020.1R
PASCAGOULA RGN A 0500            79     310/  7/ 10 1018.5R
PASCAGOULA PORT  0500               85                N/A
GRAND ISLE       0500            76 85  200/  7/  9 1020.5F
SOUTHWEST PASS   0500            77     280/ 27/ 29 1021.5R
PILOT STATION E  0500            76 83  290/ 20/ 36 1022.0R
SHELL BEACH      0500            76 84  240/ 10/ 12 1019.5F
PANAMA CITY      0500            79 84  170/  3/  4 1018.6R
APALACHICOLA     0500            79 85  270/  4/  6 1018.8R
TYNDALL TOWER C  0600            81     230/ 11/ 11 1019.4R
S APLCHCLA/42036 0550            84 85  240/  8/ 10 1019.9R
WVE H/P(F/S)=  2/ 5


$$




USA.gov is the U.S. government's official web portal to all federal, state and local government web resources and services.